Temp
66 66 66 65 66 66 65 65 65 65 65 66 66 67 68 68 70 69 68 68 68 68 69 69 71 71 73 74 75 75 75 73 72 72 72 71 69 70 72 72 70 69
65 65 66 65 66 66 66 65 65 65 64 65 66 67 68 68 68 69 69 69 69 69 69 69 70 71 72 73 74 74 74 74 73 74 72 72 71 71 72 72 71 69
66 65 65 64 64 64 64 65 65 65 66 66 66 66 67 68 69 69 68 68 68 69 69 69 69 69 71 72 72 73 74 74 73 75 74 73 72 72 72 73 71 70
65 65 65 66 65 65 65 65 65 66 66 66 66 67 68 68 70 69 68 69 69 69 70 69 68 69 70 71 72 72 73 74 75 75 74 74 73 73 72 72 70 70
65 66 66 66 66 66 65 64 65 65 65 65 66 67 67 68 68 69 69 69 68 68 68 69 70 70 69 70 71 71 72 73 75 75 74 74 73 72 73 72 72 71
66 67 67 66 66 65 64 65 65 65 65 65 66 67 67 68 68 67 68 68 68 67 67 68 69 70 70 70 69 70 71 72 73 74 74 74 75 75 73 72 72 72
65 65 65 66 65 65 65 65 65 65 65 65 67 65 66 65 65 67 69 68 69 68 67 67 67 67 69 69 69 69 70 71 74 75 75 75 75 74 75 73 72 71
65 65 66 66 65 65 64 66 66 65 65 67 64 65 65 65 65 65 66 67 69 69 68 68 67 67 67 68 68 68 69 71 72 73 74 75 74 75 76 76 75 74
65 65 65 65 64 65 65 65 65 65 66 64 64 64 65 65 65 65 65 66 66 66 67 67 67 68 67 67 67 68 69 70 71 72 72 73 74 74 76 77 76 75
64 65 65 65 64 64 64 64 64 64 65 64 64 64 63 64 65 65 64 63 63 65 66 66 66 66 67 66 66 68 69 70 71 72 73 73 74 76 77 77 76 75
64 64 64 63 63 64 63 63 63 63 64 64 64 63 64 64 64 65 64 63 61 63 64 65 65 66 66 67 66 65 66 68 71 72 72 74 74 75 74 77 76 76
64 64 63 63 63 63 62 62 63 63 64 64 65 64 64 64 64 65 65 65 64 63 63 64 65 65 67 68 67 66 66 66 68 70 71 73 74 76 77 77 76 77
64 63 63 63 62 62 62 63 63 63 64 64 65 64 64 64 65 64 64 63 64 63 62 62 63 65 66 66 66 66 65 65 65 66 68 70 71 74 77 77 77 77
64 64 64 63 63 63 63 62 63 63 63 64 64 63 63 64 63 63 62 62 62 62 63 62 62 63 64 65 66 65 63 63 63 62 62 64 66 68 70 75 77 77
64 64 64 64 64 63 63 62 63 63 64 64 64 62 61 62 62 62 61 60 61 61 61 61 60 61 62 63 63 62 61 58 58 59 60 63 66 67 69 71 76 77
64 64 64 63 63 62 62 62 62 64 64 63 62 61 60 60 59 59 59 58 57 58 58 58 58 60 59 54 51 57 57 55 55 55 56 59 62 65 67 68 68 74
64 64 63 63 63 62 62 62 63 62 60 59 58 57 56 57 56 57 57 57 56 57 56 56 57 58 52 46 45 46 53 54 53 54 54 55 58 63 65 66 66 70
63 63 63 62 62 62 61 61 60 58 57 56 55 54 54 54 54 54 55 55 55 56 56 56 57 54 47 46 44 44 46 53 54 53 53 54 57 60 64 66 67 69
63 63 62 62 61 61 60 59 58 55 54 53 52 52 52 52 53 53 53 54 54 55 55 56 56 51 46 44 43 43 42 46 54 54 54 54 55 56 60 63 66 69
62 62 61 61 60 60 58 59 56 54 53 52 52 52 51 51 51 51 52 53 53 53 54 56 56 52 44 43 43 42 41 43 52 53 53 54 56 57 60 63 66 68
62 61 60 60 60 59 58 58 55 53 53 52 51 50 49 50 50 50 51 52 52 53 53 53 55 48 43 42 43 42 42 43 51 52 54 56 58 59 61 63 67 68
61 60 59 59 59 58 59 57 54 53 52 52 51 51 51 51 51 51 50 51 52 52 52 52 54 46 43 42 41 42 41 48 50 50 52 54 57 61 63 65 68 68
60 59 59 58 58 60 60 56 53 51 51 51 50 50 49 48 49 49 50 50 50 51 50 51 51 48 43 42 42 41 43 48 49 49 51 53 56 60 62 64 67 69
60 60 60 59 60 61 58 54 53 52 51 51 49 48 48 48 49 49 49 49 48 48 49 48 48 48 43 42 42 41 43 45 47 48 49 52 54 58 61 64 66 63
60 60 60 60 59 58 56 54 53 52 51 51 49 49 48 49 49 48 48 48 48 48 47 47 48 48 44 42 40 40 43 46 45 45 46 48 52 56 60 63 65 64
60 59 58 56 57 56 55 53 53 52 51 50 49 50 49 48 48 47 46 47 48 48 47 47 46 47 47 41 41 41 40 43 44 44 44 46 49 52 55 60 63 66
MSLP
1017.18 1017.02 1016.90 1016.74 1016.54 1016.34 1016.22 1016.14 1015.94 1015.74 1015.54 1015.26 1015.06 1014.82 1014.58 1014.34 1014.06 1013.90 1013.70 1013.46 1013.26 1013.06 1012.82 1012.58 1012.30 1012.02 1011.70 1011.34 1011.06 1010.90 1010.86 1010.90 1010.90 1010.90 1010.98 1011.10 1011.30 1011.42 1011.30 1011.18 1011.26 1011.42
1017.10 1016.94 1016.78 1016.58 1016.34 1016.14 1016.06 1015.94 1015.82 1015.66 1015.38 1015.14 1014.86 1014.62 1014.34 1014.22 1014.06 1013.82 1013.50 1013.22 1012.98 1012.74 1012.54 1012.38 1012.14 1011.86 1011.58 1011.26 1010.98 1010.78 1010.58 1010.46 1010.50 1010.38 1010.50 1010.54 1010.70 1010.94 1010.82 1010.74 1010.90 1011.26
1016.98 1016.82 1016.66 1016.50 1016.30 1016.14 1015.98 1015.78 1015.62 1015.42 1015.18 1014.98 1014.78 1014.58 1014.30 1013.98 1013.62 1013.50 1013.38 1013.18 1012.82 1012.46 1012.26 1012.10 1012.06 1011.86 1011.54 1011.26 1011.02 1010.74 1010.42 1010.22 1010.14 1009.94 1009.98 1010.02 1010.10 1010.30 1010.26 1010.22 1010.46 1010.94
1016.86 1016.74 1016.58 1016.30 1016.14 1015.98 1015.78 1015.62 1015.42 1015.18 1014.98 1014.78 1014.54 1014.30 1014.06 1013.70 1013.26 1013.06 1013.02 1012.78 1012.50 1012.22 1011.98 1011.86 1011.90 1011.78 1011.46 1011.14 1010.86 1010.50 1010.22 1009.94 1009.66 1009.58 1009.54 1009.50 1009.50 1009.58 1009.74 1009.78 1009.98 1010.22
1016.70 1016.54 1016.38 1016.18 1015.98 1015.82 1015.66 1015.46 1015.22 1015.02 1014.94 1014.78 1014.46 1014.18 1013.82 1013.46 1013.14 1012.82 1012.66 1012.42 1012.34 1012.26 1011.98 1011.70 1011.38 1011.34 1011.38 1011.10 1010.78 1010.46 1010.10 1009.78 1009.42 1009.26 1009.18 1009.18 1009.10 1009.18 1009.18 1009.30 1009.46 1009.66
1016.46 1016.34 1016.18 1016.06 1015.94 1015.78 1015.54 1015.30 1015.02 1014.86 1014.70 1014.54 1014.18 1013.94 1013.78 1013.38 1013.06 1012.82 1012.46 1012.22 1012.02 1011.94 1011.82 1011.62 1011.34 1011.02 1010.94 1010.98 1010.70 1010.30 1009.98 1009.62 1009.22 1008.98 1008.86 1008.78 1008.70 1008.58 1008.70 1008.74 1008.94 1009.06
1016.38 1016.22 1016.10 1015.90 1015.78 1015.62 1015.42 1015.14 1014.90 1014.74 1014.58 1014.26 1013.94 1013.78 1013.62 1013.50 1013.14 1012.70 1012.26 1011.94 1011.70 1011.66 1011.62 1011.50 1011.34 1011.06 1010.74 1010.70 1010.50 1010.14 1009.82 1009.46 1009.06 1008.74 1008.50 1008.30 1008.26 1008.18 1008.10 1008.26 1008.42 1008.54
1016.22 1016.02 1015.86 1015.70 1015.54 1015.34 1015.14 1014.86 1014.70 1014.50 1014.30 1013.98 1013.90 1013.70 1013.54 1013.30 1013.10 1012.86 1012.46 1011.94 1011.54 1011.38 1011.34 1011.26 1011.06 1010.98 1010.74 1010.46 1010.26 1010.02 1009.70 1009.30 1008.90 1008.58 1008.26 1007.98 1007.86 1007.82 1007.58 1007.54 1007.66 1007.78
1016.06 1015.86 1015.70 1015.46 1015.18 1014.98 1014.78 1014.58 1014.42 1014.26 1014.14 1014.10 1013.90 1013.62 1013.34 1013.14 1012.94 1012.66 1012.46 1012.22 1011.90 1011.54 1011.26 1011.06 1010.90 1010.78 1010.62 1010.34 1010.10 1009.78 1009.42 1009.06 1008.66 1008.34 1008.10 1007.82 1007.58 1007.46 1007.30 1007.06 1007.10 1007.18
1015.86 1015.66 1015.38 1015.18 1015.06 1014.70 1014.54 1014.42 1014.34 1014.22 1013.98 1013.90 1013.70 1013.54 1013.30 1013.02 1012.86 1012.66 1012.50 1012.46 1012.10 1011.62 1011.26 1010.90 1010.74 1010.50 1010.30 1010.26 1010.02 1009.58 1009.14 1008.78 1008.46 1008.10 1007.78 1007.50 1007.26 1007.06 1006.82 1006.70 1006.66 1006.74
1015.54 1015.34 1015.10 1015.02 1014.86 1014.62 1014.50 1014.42 1014.26 1014.06 1013.82 1013.66 1013.46 1013.26 1013.02 1012.78 1012.62 1012.42 1012.26 1012.18 1012.14 1011.78 1011.30 1010.86 1010.46 1010.22 1009.98 1009.82 1009.70 1009.62 1009.26 1008.62 1008.14 1007.78 1007.46 1007.10 1006.78 1006.62 1006.46 1006.30 1006.18 1006.14
1015.18 1014.98 1014.86 1014.74 1014.62 1014.50 1014.38 1014.22 1014.06 1013.82 1013.54 1013.30 1013.06 1012.82 1012.66 1012.58 1012.34 1012.06 1011.82 1011.78 1011.66 1011.58 1011.38 1010.98 1010.50 1010.10 1009.78 1009.58 1009.46 1009.22 1008.94 1008.70 1008.18 1007.66 1007.34 1006.98 1006.54 1006.14 1005.94 1005.82 1005.74 1005.70
1014.74 1014.66 1014.58 1014.46 1014.34 1014.26 1014.14 1013.90 1013.70 1013.50 1013.30 1012.98 1012.70 1012.50 1012.34 1012.18 1011.94 1011.78 1011.70 1011.62 1011.42 1011.22 1011.06 1010.94 1010.62 1010.02 1009.58 1009.42 1009.22 1009.06 1008.70 1008.42 1008.22 1007.94 1007.46 1006.94 1006.54 1005.98 1005.46 1005.30 1005.18 1005.18
1014.42 1014.34 1014.22 1014.14 1014.10 1013.94 1013.78 1013.62 1013.42 1013.14 1012.98 1012.78 1012.62 1012.38 1012.14 1011.94 1011.78 1011.74 1011.66 1011.62 1011.38 1011.06 1010.74 1010.54 1010.34 1010.02 1009.62 1009.34 1009.02 1008.90 1008.74 1008.58 1008.50 1008.26 1007.94 1007.50 1006.86 1006.30 1005.70 1005.02 1004.70 1004.62
1014.14 1014.02 1013.98 1013.82 1013.74 1013.62 1013.46 1013.34 1013.22 1013.14 1012.82 1012.58 1012.34 1012.38 1012.34 1012.10 1011.86 1011.74 1011.70 1011.62 1011.38 1011.06 1010.74 1010.42 1010.18 1009.98 1009.66 1009.22 1009.02 1008.94 1008.90 1009.14 1009.10 1008.74 1008.22 1007.50 1006.86 1006.26 1005.74 1005.26 1004.46 1004.06
1013.94 1013.86 1013.70 1013.62 1013.58 1013.42 1013.38 1013.34 1013.14 1012.74 1012.46 1012.42 1012.46 1012.58 1012.50 1012.34 1012.26 1012.10 1011.94 1011.70 1011.42 1011.10 1010.82 1010.58 1010.26 1009.90 1009.62 1009.66 1009.90 1009.86 1009.66 1009.58 1009.34 1008.90 1008.46 1007.82 1007.14 1006.34 1005.66 1005.18 1004.82 1004.02
1013.78 1013.70 1013.62 1013.46 1013.38 1013.38 1013.30 1013.18 1012.86 1012.82 1012.94 1012.86 1012.78 1012.82 1012.82 1012.70 1012.46 1012.18 1011.98 1011.74 1011.50 1011.18 1010.86 1010.54 1010.14 1009.74 1009.70 1009.82 1009.90 1010.02 1009.98 1009.74 1009.46 1008.98 1008.58 1008.14 1007.38 1006.54 1005.78 1005.22 1004.82 1004.06
1013.78 1013.66 1013.50 1013.38 1013.34 1013.30 1013.30 1013.26 1013.22 1013.34 1013.38 1013.30 1013.26 1013.18 1013.02 1012.82 1012.54 1012.26 1011.98 1011.74 1011.38 1010.98 1010.70 1010.42 1010.02 1009.78 1009.82 1009.82 1009.90 1009.98 1010.02 1009.70 1009.30 1008.94 1008.46 1007.98 1007.34 1006.54 1005.74 1005.06 1004.50 1004.02
1013.78 1013.66 1013.50 1013.42 1013.42 1013.42 1013.50 1013.42 1013.54 1013.74 1013.70 1013.66 1013.54 1013.34 1013.14 1012.86 1012.42 1012.10 1011.90 1011.62 1011.34 1010.86 1010.46 1010.14 1009.86 1009.70 1009.74 1009.86 1010.02 1010.14 1010.14 1009.94 1009.10 1008.62 1008.18 1007.66 1007.26 1006.70 1005.94 1005.22 1004.50 1003.98
1013.74 1013.66 1013.58 1013.50 1013.54 1013.54 1013.58 1013.38 1013.66 1013.66 1013.70 1013.58 1013.38 1013.18 1013.02 1012.70 1012.30 1012.06 1011.82 1011.50 1011.18 1010.82 1010.34 1009.94 1009.62 1009.46 1009.78 1009.86 1009.90 1009.94 1009.94 1009.94 1009.22 1008.58 1007.94 1007.46 1007.02 1006.50 1005.86 1005.18 1004.38 1003.94
1013.82 1013.70 1013.70 1013.66 1013.62 1013.66 1013.50 1013.38 1013.50 1013.58 1013.54 1013.42 1013.22 1013.10 1012.90 1012.54 1012.22 1011.94 1011.66 1011.38 1011.06 1010.70 1010.26 1009.82 1009.50 1009.54 1009.78 1009.90 1009.86 1009.78 1009.70 1009.58 1008.94 1008.38 1007.66 1006.86 1006.26 1005.78 1005.18 1004.54 1003.94 1003.62
1013.86 1013.86 1013.82 1013.74 1013.70 1013.70 1013.30 1013.18 1013.46 1013.54 1013.46 1013.30 1013.14 1012.94 1012.70 1012.50 1012.22 1011.98 1011.66 1011.38 1010.98 1010.62 1010.26 1009.90 1009.50 1009.62 1009.74 1009.86 1009.86 1009.74 1009.62 1009.10 1008.46 1008.02 1007.42 1006.74 1005.90 1005.18 1004.50 1003.90 1003.46 1003.22
1014.02 1013.98 1013.86 1013.98 1013.82 1013.26 1012.94 1013.38 1013.66 1013.62 1013.50 1013.34 1013.22 1012.98 1012.78 1012.58 1012.30 1012.02 1011.70 1011.38 1011.06 1010.78 1010.46 1009.98 1009.70 1009.66 1009.74 1009.74 1009.70 1009.62 1009.38 1008.74 1008.26 1007.78 1007.18 1006.46 1005.66 1004.86 1004.22 1003.58 1003.14 1002.82
1014.10 1014.06 1013.94 1013.94 1013.46 1012.82 1013.22 1013.66 1013.74 1013.66 1013.58 1013.38 1013.30 1013.06 1012.78 1012.50 1012.14 1011.86 1011.62 1011.42 1011.22 1010.90 1010.58 1010.26 1009.86 1009.66 1009.62 1009.54 1009.46 1009.42 1009.34 1008.82 1008.22 1007.58 1006.94 1006.34 1005.66 1004.98 1004.14 1003.34 1002.62 1002.46
1014.10 1014.06 1013.86 1013.66 1013.46 1013.38 1013.74 1013.78 1013.74 1013.66 1013.46 1013.38 1013.30 1013.10 1012.78 1012.42 1012.18 1011.90 1011.66 1011.42 1011.10 1010.78 1010.46 1010.26 1009.74 1009.42 1009.38 1009.38 1009.46 1009.42 1009.22 1008.78 1008.38 1007.90 1007.34 1006.58 1005.70 1004.66 1003.78 1003.02 1002.46 1002.14
1014.18 1014.10 1014.18 1014.38 1014.10 1013.98 1013.90 1013.90 1013.74 1013.50 1013.46 1013.38 1013.22 1012.98 1012.70 1012.50 1012.30 1012.02 1011.70 1011.30 1010.94 1010.66 1010.34 1010.10 1009.82 1009.54 1009.34 1009.30 1009.30 1009.22 1009.22 1008.98 1008.46 1008.02 1007.30 1006.62 1006.06 1005.30 1004.26 1003.22 1002.46 1001.90
Wind_Speed
5 5 6 6 6 6 6 7 7 8 8 7 8 8 8 8 9 10 10 10 11 11 11 12 12 12 12 12 12 12 11 12 10 10 13 11 10 14 13 13 14 11
6 6 6 7 7 6 7 7 9 8 9 9 8 8 9 9 10 11 12 13 12 12 11 12 12 12 13 12 12 12 12 11 13 10 13 16 13 16 17 18 15 11
6 7 8 8 8 9 9 8 9 9 9 10 10 10 9 9 11 11 12 12 13 13 12 13 13 13 13 14 14 13 13 13 13 13 13 15 13 13 14 15 12 14
6 7 7 8 8 9 8 9 9 9 9 10 10 10 11 11 12 12 12 13 13 13 13 13 12 13 13 14 14 13 14 14 13 13 14 13 12 13 13 12 11 11
7 7 7 8 8 9 9 10 10 10 10 10 11 11 11 12 13 13 13 13 12 13 13 14 14 13 13 13 14 13 14 13 14 14 14 14 12 12 12 13 14 15
7 8 8 8 8 8 9 10 10 10 10 11 11 11 11 13 12 12 14 14 13 13 14 14 14 14 13 13 14 14 14 14 13 15 16 16 15 13 12 13 15 17
8 8 9 8 8 10 10 10 9 10 10 10 10 10 10 11 13 13 14 14 15 14 14 14 14 14 13 12 13 14 14 15 16 16 17 16 15 16 16 16 15 15
9 8 8 8 10 10 10 9 9 9 10 11 11 11 10 11 12 11 13 15 14 15 14 15 15 14 14 13 14 14 15 13 15 17 18 17 16 17 17 14 15 16
8 8 8 10 10 9 9 9 9 10 9 10 10 10 10 10 11 12 13 14 15 15 15 15 15 14 13 13 14 15 16 15 16 17 17 17 18 18 18 17 17 16
8 8 9 9 10 9 10 10 10 9 9 9 9 9 10 10 11 12 13 13 15 15 15 15 15 15 14 13 14 15 16 17 17 18 18 18 18 18 18 18 18 17
8 8 9 9 9 9 10 10 9 9 8 9 9 10 10 10 10 11 13 14 13 14 15 15 15 15 15 15 14 13 16 16 17 17 18 19 19 19 19 18 18 17
8 8 8 9 9 9 9 9 9 9 9 9 10 10 11 11 12 11 12 14 15 15 15 15 15 15 16 15 14 14 14 15 15 16 17 19 20 20 19 18 17 18
9 9 8 8 8 8 8 8 9 9 10 10 10 11 12 12 13 14 13 14 15 15 15 15 15 16 16 15 15 14 15 15 13 14 15 17 19 21 20 19 19 18
9 9 8 8 8 8 8 8 9 9 10 11 11 12 13 14 14 14 14 14 14 15 15 14 14 14 15 15 14 13 12 12 13 13 12 15 16 17 18 20 19 19
9 8 8 8 9 9 9 9 10 11 12 12 13 13 12 13 14 14 15 15 15 14 15 14 14 13 12 12 12 12 11 11 12 12 13 14 15 15 15 18 20 18
9 8 9 9 9 10 10 10 11 13 13 14 13 13 13 13 14 14 14 14 15 14 13 12 12 11 12 14 8 8 12 12 12 12 12 13 14 15 14 14 17 17
8 9 9 9 9 10 10 11 14 13 13 14 13 13 14 14 14 14 14 14 15 14 14 12 12 12 14 11 10 9 10 13 13 13 12 13 13 14 14 13 12 14
8 9 9 10 10 11 11 12 13 13 13 13 13 13 13 13 14 14 14 14 13 15 14 13 12 14 13 12 10 9 8 10 13 13 11 11 12 13 13 13 13 12
8 9 10 10 10 11 11 12 13 13 13 13 14 13 13 13 14 14 14 14 15 15 15 14 13 13 12 11 11 10 10 11 12 12 12 12 12 12 13 13 13 12
8 9 9 10 10 10 11 13 13 13 13 13 13 13 12 13 14 14 14 15 14 14 14 15 15 13 11 13 14 13 11 10 13 15 14 14 14 14 13 14 14 14
8 9 9 9 10 10 11 12 13 13 13 12 12 13 13 13 13 14 14 14 14 14 14 15 14 13 10 12 14 14 14 14 14 14 14 14 14 14 15 14 14 14
8 8 8 9 9 10 12 13 13 13 13 13 13 12 12 13 13 13 14 14 14 15 15 15 14 14 11 10 11 14 16 14 13 13 13 14 15 14 14 13 13 14
7 8 8 8 10 12 13 13 13 13 12 11 13 13 13 13 13 13 12 13 14 14 15 16 15 14 13 12 12 14 14 12 13 12 12 13 14 15 14 14 14 15
7 7 9 10 11 13 13 12 12 11 11 11 12 13 13 13 13 12 12 13 14 15 14 15 16 15 14 12 13 13 13 12 11 11 13 13 13 15 14 13 15 16
7 8 9 10 11 11 10 12 12 11 11 11 12 12 12 12 12 12 13 13 13 14 17 17 15 15 14 11 10 11 11 11 11 11 12 12 13 13 13 12 12 13
6 7 8 9 10 10 10 11 11 11 12 12 12 11 11 12 12 12 14 12 12 13 12 13 14 13 13 12 12 12 11 12 11 11 12 12 12 12 13 12 12 12
Wind_Direction
323 321 317 315 309 308 304 304 302 300 296 293 291 290 288 291 292 296 298 298 296 289 287 284 280 275 275 275 271 266 258 253 247 241 243 241 250 254 244 241 243 231
315 314 312 310 305 307 306 303 303 299 294 290 290 292 290 292 294 296 299 300 298 293 289 287 286 278 273 270 271 270 264 255 249 244 245 244 238 240 243 243 243 236
309 312 308 307 308 305 302 298 300 303 301 301 298 296 295 293 297 296 296 297 298 296 292 288 283 279 274 267 267 268 266 262 255 251 247 242 238 241 244 241 241 239
308 305 304 305 304 303 302 303 303 301 303 304 304 304 300 295 294 295 293 292 294 296 293 286 280 282 279 274 269 264 262 262 259 254 254 251 245 242 239 237 232 231
305 303 304 303 302 302 301 300 299 299 299 299 299 299 297 297 297 296 293 293 293 293 293 291 284 273 275 274 268 265 262 260 259 255 253 253 245 240 241 239 236 239
303 306 307 305 301 303 303 300 298 299 298 296 298 299 296 295 292 289 291 291 290 289 289 290 286 281 273 271 269 263 261 258 257 256 253 251 249 241 239 239 239 239
307 308 306 303 305 305 301 298 296 295 294 293 293 292 295 292 293 290 287 287 289 287 286 286 285 283 278 271 267 264 260 260 258 257 254 251 248 247 243 241 239 236
308 309 308 308 309 306 299 297 294 294 293 296 297 295 292 291 288 291 291 289 285 282 282 283 282 280 279 273 268 267 264 260 258 255 256 253 250 250 247 243 240 239
307 308 311 307 311 305 298 297 297 294 293 293 291 292 292 292 295 294 291 289 286 283 279 279 280 280 280 278 273 269 266 261 258 257 254 254 250 249 250 248 246 244
307 307 308 313 308 307 304 303 301 297 292 289 290 292 291 293 292 293 293 292 288 284 279 276 278 278 275 276 279 277 268 263 261 257 256 254 252 250 248 247 246 247
309 309 312 306 302 302 302 301 295 292 290 290 291 289 293 297 295 293 292 288 286 284 281 278 274 274 278 277 272 274 278 273 265 262 261 259 254 249 249 249 248 246
315 314 313 309 305 305 303 298 292 288 289 288 289 293 296 295 295 295 295 293 287 284 283 283 280 277 275 275 276 276 273 278 277 269 267 265 260 253 248 247 246 246
323 321 316 308 304 302 297 292 291 291 289 290 293 294 294 295 294 298 298 295 292 288 283 279 279 277 276 278 277 275 275 276 288 297 293 277 267 261 251 246 245 245
324 320 314 309 305 300 298 296 295 297 299 300 300 298 298 297 297 297 297 296 294 291 287 284 282 279 277 275 276 278 277 283 293 294 299 296 289 281 268 254 245 244
321 318 311 306 308 308 304 304 307 307 306 302 302 301 298 296 296 297 297 297 294 293 292 289 284 280 279 276 280 286 293 301 299 299 299 295 292 288 280 268 253 244
320 315 314 316 311 314 316 314 310 308 307 305 304 301 299 298 296 293 293 294 295 293 292 290 285 283 280 296 328 318 306 303 301 297 295 293 291 288 286 281 261 248
319 320 318 316 322 317 316 315 316 318 312 306 303 301 299 297 293 292 293 294 293 293 292 288 285 281 289 297 295 294 291 292 294 294 292 287 282 279 277 278 276 260
322 320 319 322 323 324 325 325 322 318 315 312 310 306 302 299 292 290 291 294 295 292 289 287 287 288 293 294 290 279 269 285 292 288 283 279 277 278 276 271 265 261
320 320 321 324 328 327 331 327 325 320 316 314 309 306 302 297 294 293 292 294 295 293 291 290 286 289 303 325 328 320 306 295 293 283 279 278 278 277 278 277 274 266
321 323 322 326 328 331 331 329 325 321 318 314 310 308 305 301 298 296 295 295 296 295 293 291 290 295 320 326 324 324 324 320 301 291 281 275 271 269 265 265 262 264
324 324 326 327 329 331 331 329 325 322 319 317 313 310 307 305 303 302 300 298 298 296 294 293 291 304 323 317 314 315 318 313 298 287 281 275 269 263 261 260 261 260
323 323 323 327 331 331 331 333 328 324 321 320 316 312 310 308 306 304 303 302 301 300 297 296 296 308 314 310 311 313 310 302 296 291 282 278 273 270 264 259 256 256
322 320 326 332 332 329 336 337 330 327 324 323 318 317 315 312 310 307 306 305 303 302 301 298 300 308 317 314 308 303 300 301 300 295 288 279 272 267 264 259 254 251
320 326 333 334 327 335 339 333 331 327 325 325 321 319 316 315 313 311 309 307 306 303 302 303 302 304 306 309 306 306 311 307 301 297 289 282 276 272 268 265 258 252
328 329 329 330 330 337 333 333 331 328 326 325 322 317 315 315 316 314 313 310 307 305 305 305 304 308 313 318 330 325 320 313 306 299 297 293 289 281 273 268 266 259
326 322 327 324 326 330 332 332 329 328 331 327 325 322 319 320 319 317 315 313 312 310 311 312 312 312 312 320 323 320 318 317 307 297 287 284 283 286 285 280 274 272